STARLINK-38093, 69980

Orbit data source: Space-Track

STARLINK-38093, 69980 is a payload satellite owned by SpaceX/Seattle (US) in SSO that was launched on Sat, 11 Jul 2026 UTC via an FALCON 9 launch vehicle from the Air Force Western Test Range (AFWTR). Payload-class satellites include a variety of spacecraft equipped with specific instruments for various scientific and technological missions. These include communications satellites like Starlink; space stations such as the ISS; scientific satellites like the Hubble; Earth observation satellites from companies like Planet Labs, Umbra, and HawkEye 360; GPS; miniature CubeSats for education and research; and military/defense satellites.

Loading next visibility...
Identifier
69980, 2026-159F
Orbit
SSO
Country
Flag of USUS
Related business
Manufacturer
SpaceX/Seattle
Mission
Operational spacecraft
Bus & Motor
STARLINK V2MO, Unknown motor
Mass
575 kg wet, ~530 kg dry
Launch date (UTC)
2026-07-11 (1 month ago)
Launch vehicle
FALCON 9
Launch site
Air Force Western Test Range (AFWTR)
Object type
Payload
Rocket body
Debris
Shape & HBR
BOX + PAN, 17.7 m
Radar Cross Section
Large (>1 m²)

Expand to show TLE details & history
Last TLE update: 13 hours ago

TLE from 13 hours ago
0 STARLINK-38093
1 69980U 26159F   26228.51994974  .00164241  00000-0  10797-2 0  9997
2 69980  97.2844  68.9663 0001165  68.9969 291.1421 15.75216382  6967
Epoch: 2026-08-16T12:28Z
TLE epoch observation values (Epoch: 2026-08-16T12:28:43.657Z)
Latitude
-0.00001°
Longitude
-83.1309°
Altitude
346.901 km
Speed
7.701 km/s
True Right ascension
04h 35m 51s
True Declination
0° 00' 00"
Sunlit
Object was in daylight at epoch
Visualization orbit readout
Latitude
Unknown
Longitude
Unknown
Altitude
Unknown
Speed
Unknown
Apparent Right ascension
Unknown
Apparent Declination
Unknown
Sunlit
N/A
Visualization observer readout
Local Sidereal Time
16:03:10
Azimuth
Unknown
Elevation
Unknown
Doppler factor
Unknown
Orbital elements
Apogee altitude
341.686 km
Perigee altitude
340.12 km
Semi-major axis
6,719.04 km
Eccentricity
0.00012
Inclination
97.2844°
RAAN
68.9663°
Arg. of periapsis
68.9969°
True anomaly
291.12965°
Mean anomaly
291.1421°
Eccentric anomaly
291.13587°
Mean motion
3.94078 °/min
Orbital period
91.35 mins
BSTAR
0.0010797
Loading maneuver chart data...
Computing Atmospheric mass density...
Loading historical data...
Loading historical data...
Loading historical data...
Loading historical data...
Loading historical data...
Loading historical data...
Loading historical data...

Documentation

Showing up to 5 results
|